Quincy, IL

4:10 AM CST on December 16, 2017 (GMT -0600)
Quincy Regional-Baldwin

Weather History for KUIN - September, 2013

Change the Weather History Date:

Tuesday, September 17, 2013

  Actual Average Record
Temperature  
Mean Temperature 60 °F 66 °F  
Max Temperature 67 °F 77 °F 99 °F (1927)
Min Temperature 53 °F 55 °F 39 °F (1903)
Degree Days  
Heating Degree Days 5 3  
Month to date heating degree days 12 23  
Since 1 July heating degree days 18 28  
Cooling Degree Days 0 4  
Month to date cooling degree days 147 92  
Year to date cooling degree days 1153 1045  
Growing Degree Days 10 (Base 50)    
Moisture  
Dew Point 57 °F    
Average Humidity 83    
Maximum Humidity 93    
Minimum Humidity 72    
Precipitation  
Precipitation 0.01 in 0.11 in 2.32 in (1944)
Month to date precipitation 0.86 1.86  
Year to date precipitation 28.96 27.61  
Sea Level Pressure  
Sea Level Pressure 30.17 in    
Wind  
Wind Speed 7 mph (SE)    
Max Wind Speed 12 mph    
Max Gust Speed 14 mph    
Visibility 9 miles    
Events Rain    
T = Trace of Precipitation, MM = Missing Value Source: NWS Daily Summary

Daily Weather History Graph

Daily Weather History Graph

Search for Another Location

Airport or City:

Trip Planner

Search our weather history database for the weather conditions in past years. The results will help you decide how hot, cold, wet, or windy it might be!

Date:

Astronomy

Sep. 17, 2013 Rise Set
Actual Time 6:47 AM CDT 7:09 PM CDT
Civil Twilight 6:20 AM CDT 7:36 PM CDT
Nautical Twilight 5:48 AM CDT 8:08 PM CDT
Astronomical Twilight 5:16 AM CDT 8:40 PM CDT
Moon 5:56 PM CDT (9/17) 4:42 AM CDT (9/17)
Length of Visible Light 13h 15m
Length of Day
12h 21m
Waxing Gibbous, 96% of the Moon is Illuminated
Sep 17
Waxing Gibbous
Sep 19
Full
Sep 26
Last Quarter
Oct 4
New
Oct 11
First Quarter

Hourly Weather History & Observations

Time (CDT) Temp. Dew Point Humidity Pressure Visibility Wind Dir Wind Speed Gust Speed Precip Events Conditions
12:54 AM 55.0 °F 51.1 °F 86% 30.27 in 10.0 mi East 3.5 mph - N/A   Clear
1:54 AM 54.0 °F 51.1 °F 90% 30.27 in 10.0 mi East 5.8 mph - N/A   Clear
2:54 AM 53.1 °F 50.0 °F 89% 30.25 in 10.0 mi East 4.6 mph - N/A   Clear
3:54 AM 53.1 °F 50.0 °F 89% 30.25 in 10.0 mi East 5.8 mph - N/A   Clear
4:54 AM 53.1 °F 50.0 °F 89% 30.23 in 9.0 mi East 4.6 mph - N/A   Clear
5:54 AM 53.1 °F 50.0 °F 89% 30.23 in 10.0 mi East 5.8 mph - N/A   Clear
6:54 AM 54.0 °F 50.0 °F 86% 30.23 in 10.0 mi ESE 8.1 mph - N/A   Overcast
7:54 AM 55.0 °F 51.1 °F 86% 30.23 in 10.0 mi ESE 8.1 mph - N/A   Clear
8:54 AM 57.0 °F 52.0 °F 83% 30.22 in 10.0 mi SE 6.9 mph - N/A   Scattered Clouds
9:54 AM 62.1 °F 54.0 °F 75% 30.23 in 10.0 mi SE 8.1 mph - N/A   Overcast
10:54 AM 64.9 °F 55.9 °F 73% 30.22 in 10.0 mi SSE 6.9 mph - N/A   Overcast
11:16 AM 66.2 °F 55.4 °F 68% 30.22 in 10.0 mi South 8.1 mph - N/A   Overcast
11:54 AM 66.0 °F 57.0 °F 73% 30.20 in 10.0 mi SE 9.2 mph - N/A   Mostly Cloudy
12:03 PM 66.2 °F 57.2 °F 73% 30.20 in 10.0 mi SE 6.9 mph - N/A   Mostly Cloudy
12:30 PM 66.2 °F 57.2 °F 73% 30.20 in 10.0 mi SSE 6.9 mph - N/A   Overcast
12:54 PM 66.0 °F 57.9 °F 75% 30.19 in 10.0 mi SSE 6.9 mph - N/A   Overcast
1:09 PM 66.2 °F 57.2 °F 73% 30.19 in 10.0 mi SSE 8.1 mph - N/A   Overcast
1:50 PM 66.2 °F 57.2 °F 73% 30.18 in 10.0 mi SSE 9.2 mph - N/A   Overcast
1:54 PM 66.0 °F 57.9 °F 75% 30.17 in 10.0 mi SSE 9.2 mph - N/A   Overcast
2:10 PM 66.2 °F 57.2 °F 73% 30.17 in 10.0 mi SE 9.2 mph - N/A   Overcast
2:54 PM 66.0 °F 57.9 °F 75% 30.15 in 10.0 mi SSE 5.8 mph - N/A   Overcast
3:40 PM 66.2 °F 60.8 °F 83% 30.14 in 8.0 mi SSE 9.2 mph - 0.01 in Rain Light Rain
3:54 PM 66.0 °F 60.1 °F 81% 30.13 in 9.0 mi SSE 10.4 mph - 0.01 in Rain Light Rain
4:54 PM 64.9 °F 61.0 °F 87% 30.12 in 7.0 mi SE 6.9 mph - 0.00 in Rain Light Rain
5:34 PM 64.4 °F 60.8 °F 88% 30.11 in 8.0 mi SE 5.8 mph - 0.00 in   Overcast
5:54 PM 64.9 °F 61.0 °F 87% 30.10 in 9.0 mi SE 6.9 mph - 0.00 in   Overcast
6:05 PM 64.4 °F 60.8 °F 88% 30.10 in 8.0 mi SE 5.8 mph - N/A   Overcast
6:27 PM 66.2 °F 60.8 °F 83% 30.10 in 9.0 mi SE 5.8 mph - N/A   Overcast
6:54 PM 66.0 °F 61.0 °F 84% 30.09 in 9.0 mi SSE 5.8 mph - N/A   Overcast
7:54 PM 64.9 °F 60.1 °F 84% 30.07 in 9.0 mi SE 5.8 mph - N/A   Mostly Cloudy
8:02 PM 64.4 °F 60.8 °F 88% 30.07 in 9.0 mi SE 5.8 mph - N/A   Scattered Clouds
8:54 PM 64.0 °F 60.1 °F 87% 30.07 in 8.0 mi SE 5.8 mph - N/A   Clear
9:54 PM 63.0 °F 59.0 °F 87% 30.08 in 8.0 mi SE 4.6 mph - N/A   Clear
10:54 PM 62.1 °F 57.9 °F 86% 30.07 in 9.0 mi SE 3.5 mph - N/A   Clear
11:54 PM 63.0 °F 57.9 °F 84% 30.06 in 10.0 mi SSE 6.9 mph - N/A   Mostly Cloudy